Bluewater, NM

4:35 PM MST on February 05, 2016 (GMT -0700)
Grants-Milan Municipal

Weather History for KGNT - January, 2015

Change the Weather History Date:

Friday, January 2, 2015

  Actual Average Record
Temperature  
Mean Temperature 19 °F -  
Max Temperature 30 °F 41 °F 62 °F (1981)
Min Temperature 8 °F 12 °F -13 °F (2011)
Degree Days  
Heating Degree Days 46    
Moisture  
Dew Point 13 °F    
Average Humidity 79    
Maximum Humidity 90    
Minimum Humidity 57    
Precipitation  
Precipitation 0.00 in - - ()
Sea Level Pressure  
Sea Level Pressure 29.97 in    
Wind  
Wind Speed 8 mph (NNW)    
Max Wind Speed 18 mph    
Max Gust Speed 26 mph    
Visibility 10 miles    
Events Snow    
Averages and records for this station are not official NWS values.
T = Trace of Precipitation, MM = Missing Value Source: NWS Daily Summary

Daily Weather History Graph

Daily Weather History Graph

Search for Another Location

Airport or City:

Trip Planner

Search our weather history database for the weather conditions in past years. The results will help you decide how hot, cold, wet, or windy it might be!

Date:

Astronomy

Jan. 02, 2015 Rise Set
Actual Time 7:20 AM MST 5:11 PM MST
Civil Twilight 6:52 AM MST 5:39 PM MST
Nautical Twilight 6:20 AM MST 6:10 PM MST
Astronomical Twilight 5:49 AM MST 6:41 PM MST
Moon 3:30 PM MST (1/2) 4:53 AM MST (1/2)
Length of Visible Light 10h 47m
Length of Day
9h 51m
Waxing Gibbous, 94% of the Moon is Illuminated
Jan 2
Waxing Gibbous
Jan 4
Full
Jan 13
Last Quarter
Jan 20
New
Jan 26
First Quarter

Hourly Weather History & Observations

Time (MST) Temp. Windchill Dew Point Humidity Pressure Visibility Wind Dir Wind Speed Gust Speed Precip Events Conditions
12:15 AM 13.1 °F 1.8 °F 9.5 °F 86% 30.02 in 10.0 mi NNW 8.1 mph - N/A   Overcast
12:35 AM 10.9 °F 0.2 °F 7.2 °F 85% 30.03 in 10.0 mi NW 6.9 mph - N/A   Overcast
12:55 AM 10.9 °F 1.4 °F 7.2 °F 85% 30.02 in 10.0 mi NW 5.8 mph - N/A   Overcast
1:15 AM 10.6 °F 1.0 °F 7.0 °F 85% 30.02 in 10.0 mi NNW 5.8 mph - N/A Snow Light Snow
1:35 AM 10.9 °F 1.4 °F 7.7 °F 87% 30.02 in 10.0 mi NW 5.8 mph - N/A Snow Light Snow
1:55 AM 10.8 °F 0.0 °F 7.7 °F 87% 30.02 in 10.0 mi NNW 6.9 mph - N/A   Overcast
2:15 AM 10.0 °F 0.4 °F 6.6 °F 86% 30.02 in 10.0 mi NNW 5.8 mph - N/A   Scattered Clouds
2:35 AM 10.4 °F 2.2 °F 6.8 °F 85% 30.02 in 10.0 mi NNW 4.6 mph - N/A   Mostly Cloudy
2:55 AM 8.4 °F -0.1 °F 5.0 °F 86% 30.02 in 10.0 mi NNW 4.6 mph - N/A   Mostly Cloudy
3:15 AM 8.6 °F 0.1 °F 5.7 °F 88% 30.02 in 10.0 mi NW 4.6 mph - N/A   Overcast
3:35 AM 8.6 °F 2.0 °F 5.9 °F 89% 30.02 in 10.0 mi NNW 3.5 mph - N/A   Overcast
3:55 AM 9.3 °F -0.5 °F 6.6 °F 89% 30.02 in 10.0 mi NNW 5.8 mph - N/A   Overcast
4:15 AM 10.9 °F -0.8 °F 7.7 °F 87% 30.02 in 10.0 mi North 8.1 mph - N/A   Mostly Cloudy
4:55 AM 11.7 °F -0.9 °F 9.1 °F 90% 30.02 in 10.0 mi NNW 9.2 mph - N/A   Mostly Cloudy
5:15 AM 11.3 °F -0.4 °F 8.4 °F 88% 30.02 in 10.0 mi NNW 8.1 mph - N/A   Scattered Clouds
5:35 AM 9.5 °F 1.2 °F 7.2 °F 90% 30.02 in 10.0 mi NW 4.6 mph - N/A   Mostly Cloudy
5:55 AM 10.0 °F 0.4 °F 7.7 °F 90% 30.02 in 10.0 mi NW 5.8 mph - N/A   Overcast
6:15 AM 10.4 °F 2.2 °F 7.7 °F 89% 30.02 in 10.0 mi NW 4.6 mph - N/A   Overcast
6:35 AM 10.4 °F 2.2 °F 7.7 °F 89% 30.02 in 10.0 mi NW 4.6 mph - N/A   Overcast
6:55 AM 10.4 °F 4.0 °F 7.7 °F 89% 30.02 in 10.0 mi NNW 3.5 mph - N/A   Overcast
7:15 AM 10.0 °F 0.4 °F 7.2 °F 88% 30.03 in 10.0 mi NNW 5.8 mph - N/A   Overcast
7:35 AM 12.6 °F 4.8 °F 9.3 °F 87% 30.03 in 10.0 mi NNW 4.6 mph - N/A   Overcast
7:55 AM 12.4 °F 0.9 °F 8.6 °F 85% 30.04 in 10.0 mi NNW 8.1 mph - N/A   Overcast
8:15 AM 12.6 °F 2.2 °F 9.3 °F 87% 30.04 in 10.0 mi NW 6.9 mph - N/A   Overcast
8:35 AM 14.4 °F 5.5 °F 10.9 °F 86% 30.04 in 10.0 mi NNW 5.8 mph - N/A   Overcast
8:55 AM 15.1 °F 5.2 °F 10.8 °F 83% 30.04 in 10.0 mi NNW 6.9 mph - N/A   Overcast
9:15 AM 15.3 °F 9.6 °F 10.9 °F 83% 30.04 in 10.0 mi NNW 3.5 mph - N/A   Overcast
9:35 AM 16.7 °F 8.3 °F 12.0 °F 82% 30.05 in 10.0 mi North 5.8 mph - N/A   Overcast
9:55 AM 17.6 °F 7.3 °F 12.6 °F 81% 30.04 in 10.0 mi NNW 8.1 mph - N/A   Overcast
10:15 AM 19.4 °F 11.5 °F 12.9 °F 76% 30.04 in 10.0 mi NNW 5.8 mph - N/A   Overcast
10:35 AM 20.7 °F 14.2 °F 13.3 °F 73% 30.03 in 10.0 mi North 4.6 mph - N/A   Overcast
10:55 AM 21.2 °F - 13.8 °F 73% 30.02 in 10.0 mi Calm Calm - N/A   Overcast
11:15 AM 22.3 °F 16.1 °F 14.2 °F 71% 30.01 in 10.0 mi NNW 4.6 mph - N/A   Overcast
11:35 AM 23.0 °F 15.8 °F 14.4 °F 70% 29.99 in 10.0 mi NW 5.8 mph - N/A   Overcast
11:55 AM 23.9 °F 15.8 °F 14.9 °F 69% 29.97 in 10.0 mi North 6.9 mph - N/A   Overcast
12:15 PM 24.6 °F 17.7 °F 15.1 °F 67% 29.96 in 10.0 mi NW 5.8 mph - N/A   Overcast
12:35 PM 25.3 °F 17.6 °F 15.4 °F 66% 29.95 in 10.0 mi NNW 6.9 mph - N/A   Overcast
12:55 PM 26.6 °F 21.2 °F 15.6 °F 63% 29.94 in 10.0 mi NW 4.6 mph - N/A   Overcast
1:15 PM 27.5 °F 22.2 °F 15.6 °F 61% 29.93 in 10.0 mi NW 4.6 mph - N/A   Overcast
1:35 PM 28.2 °F 21.0 °F 14.7 °F 57% 29.91 in 10.0 mi NW 6.9 mph - N/A   Overcast
1:55 PM 28.8 °F 20.2 °F 15.4 °F 58% 29.90 in 10.0 mi NW 9.2 mph - N/A   Overcast
2:15 PM 29.3 °F 19.1 °F 15.8 °F 57% 29.90 in 10.0 mi NW 12.7 mph 17.3 mph N/A   Overcast
2:35 PM 30.0 °F 21.7 °F 17.1 °F 59% 29.90 in 10.0 mi NNW 9.2 mph 17.3 mph N/A   Overcast
2:55 PM 29.3 °F 21.5 °F 18.7 °F 65% 29.90 in 10.0 mi North 8.1 mph - N/A   Overcast
3:15 PM 29.1 °F 20.6 °F 18.7 °F 65% 29.90 in 10.0 mi NNW 9.2 mph - N/A   Overcast
3:35 PM 27.7 °F 17.6 °F 18.7 °F 69% 29.90 in 10.0 mi North 11.5 mph - N/A   Overcast
3:55 PM 27.5 °F 17.4 °F 19.0 °F 71% 29.90 in 10.0 mi North 11.5 mph 16.1 mph N/A   Overcast
4:15 PM 27.5 °F 17.4 °F 18.9 °F 70% 29.90 in 10.0 mi North 11.5 mph - N/A   Overcast
4:35 PM 27.3 °F 16.6 °F 19.2 °F 72% 29.90 in 10.0 mi NW 12.7 mph - N/A   Overcast
4:55 PM 25.9 °F 13.3 °F 18.3 °F 73% 29.90 in 10.0 mi NW 16.1 mph 24.2 mph N/A   Overcast
5:15 PM 24.8 °F 11.9 °F 18.9 °F 78% 29.90 in 10.0 mi NW 16.1 mph 26.5 mph N/A   Overcast
5:35 PM 23.9 °F 10.8 °F 18.7 °F 80% 29.91 in 10.0 mi NW 16.1 mph 25.3 mph N/A   Overcast
5:55 PM 23.9 °F 12.3 °F 18.5 °F 80% 29.92 in 10.0 mi NW 12.7 mph 23.0 mph N/A   Overcast
6:15 PM 23.9 °F 9.9 °F 18.5 °F 80% 29.92 in 10.0 mi NW 18.4 mph 25.3 mph N/A   Overcast
6:35 PM 24.4 °F 13.5 °F 18.1 °F 77% 29.92 in 10.0 mi NW 11.5 mph 24.2 mph N/A   Overcast
6:55 PM 24.4 °F 11.9 °F 18.3 °F 78% 29.92 in 10.0 mi NW 15.0 mph 25.3 mph N/A   Overcast
7:15 PM 24.4 °F 11.5 °F 18.9 °F 79% 29.92 in 10.0 mi NW 16.1 mph 26.5 mph N/A   Overcast
7:35 PM 24.3 °F 10.8 °F 19.4 °F 82% 29.92 in 10.0 mi NW 17.3 mph 26.5 mph N/A   Overcast
7:55 PM 23.9 °F 10.3 °F 18.9 °F 81% 29.92 in 10.0 mi NW 17.3 mph 25.3 mph N/A   Overcast
8:15 PM 23.4 °F 10.6 °F 19.4 °F 85% 29.93 in 10.0 mi NNW 15.0 mph 24.2 mph N/A   Overcast
8:35 PM 22.3 °F 9.7 °F 18.0 °F 83% 29.92 in 10.0 mi NNW 13.8 mph 20.7 mph N/A   Overcast
8:55 PM 22.1 °F 10.6 °F 17.6 °F 83% 29.93 in 10.0 mi NNW 11.5 mph 19.6 mph N/A   Overcast
9:15 PM 21.9 °F 9.2 °F 16.7 °F 80% 29.93 in 10.0 mi NNW 13.8 mph 21.9 mph N/A   Overcast
9:35 PM 21.7 °F 10.2 °F 15.8 °F 78% 29.92 in 10.0 mi NNW 11.5 mph 19.6 mph N/A   Overcast
9:55 PM 20.5 °F 10.8 °F 14.9 °F 79% 29.93 in 10.0 mi NNW 8.1 mph - N/A   Overcast
10:15 PM 19.8 °F 9.9 °F 14.5 °F 80% 29.93 in 10.0 mi NNW 8.1 mph - N/A   Overcast
10:35 PM 19.8 °F 9.9 °F 14.7 °F 81% 29.93 in 10.0 mi NW 8.1 mph - N/A   Overcast
10:55 PM 19.2 °F 8.4 °F 15.3 °F 85% 29.92 in 10.0 mi NW 9.2 mph 16.1 mph N/A   Overcast
11:15 PM 18.1 °F 7.9 °F 14.7 °F 86% 29.92 in 10.0 mi NNW 8.1 mph - N/A   Mostly Cloudy
11:35 PM 17.6 °F 6.4 °F 14.2 °F 86% 29.91 in 10.0 mi NNW 9.2 mph - N/A   Scattered Clouds
11:55 PM 15.8 °F 7.2 °F 12.7 °F 88% 29.92 in 10.0 mi NW 5.8 mph - N/A   Clear